This demonstration page uses our WeatherBlox Daily Observations layout. Learn more.

Left ArrowRight Arrow

Hourly Observations for May 29, 2022

Temp ( °F °C ) Dew Point ( °F °C ) Humidity (%) Winds ( mph kmh ) Pressure ( in mb ) Visibility ( mi km ) Precip ( " mm )
12:53 am 00:53 Clear 59 15 35 1.7 41 41 NW 8 13 29.90 1012 10 16 0.00 0.00
1:53 am 01:53 Clear 58 14.4 34 1.1 41 41 WNW 9 15 29.90 1013 10 16 0.00 0.00
2:53 am 02:53 Clear 56 13.3 35 1.7 46 46 WNW 7 11 29.92 1013 10 16 0.00 0.00
3:53 am 03:53 Clear 56 13.3 34 1.1 44 44 Calm 29.93 1013 10 16 0.00 0.00
4:53 am 04:53 Clear 51 10.6 35 1.7 54 54 ESE 5 7 29.93 1014 10 16 0.00 0.00
5:53 am 05:53 Sunny 49 9.4 37 2.8 64 64 Calm 29.95 1014 10 16 0.00 0.00
6:53 am 06:53 Sunny 50 10 39 3.9 66 66 Calm 29.96 1015 10 16 0.00 0.00
7:53 am 07:53 Sunny 57 13.9 40 4.4 53 53 NE 5 7 29.97 1015 10 16 0.00 0.00
8:53 am 08:53 Sunny 61 16.1 38 3.3 43 43 VRB 3 6 29.97 1015 10 16 0.00 0.00
9:53 am 09:53 Sunny 65 18.3 31 -0.6 28 28 Calm 29.96 1015 10 16 0.00 0.00
10:53 am 10:53 Sunny 68 20 32 0 26 26 N 8 13 29.96 1015 10 16 0.00 0.00
11:53 am 11:53 Sunny 71 21.7 30 -1.1 22 22 WNW 8 13 29.94 1014 10 16 0.00 0.00
12:53 pm 12:53 Sunny 73 22.8 31 -0.6 21 21 SW 7 11 29.93 1014 10 16 0.00 0.00
1:53 pm 13:53 Sunny 73 22.8 30 -1.1 20 20 VRB 5 7 29.91 1013 10 16 0.00 0.00
2:53 pm 14:53 Sunny 76 24.4 30 -1.1 18 18 SE 8 13 29.88 1012 10 16 0.00 0.00
3:53 pm 15:53 Sunny 77 25 28 -2.2 16 16 SSW 8 13 29.86 1011 10 16 0.00 0.00
4:53 pm 16:53 Sunny 80 26.7 29 -1.7 15 15 VRB 6 9 29.85 1011 10 16 0.00 0.00
5:53 pm 17:53 Sunny 78 25.6 29 -1.7 16 16 VRB 6 9 29.83 1010 10 16 0.00 0.00
6:53 pm 18:53 Mostly Sunny 78 25.6 28 -2.2 16 16 N 7 11 29.83 1010 10 16 0.00 0.00
7:53 pm 19:53 Mostly Cloudy 74 23.3 35 1.7 24 24 NW 9 15 29.84 1010 10 16 0.00 0.00
8:53 pm 20:53 Mostly Cloudy 71 21.7 38 3.3 30 30 NW 12 19 29.85 1011 10 16 0.00 0.00
9:53 pm 21:53 Cloudy 70 21.1 37 2.8 30 30 NW 6 9 29.88 1012 10 16 0.00 0.00
10:53 pm 22:53 Cloudy 67 19.4 38 3.3 35 35 NNW 8 13 29.91 1013 10 16 0.00 0.00
11:53 pm 23:53 Mostly Cloudy 67 19.4 33 0.6 28 28 NNW 10 17 29.92 1013 10 16 0.00 0.00

Powered by AerisWeather